Springfield, VT

2:13 PM EDT on September 24, 2017 (GMT -0400)
Hartness State

Weather History for KVSF - December, 2013

Change the Weather History Date:

Tuesday, December 10, 2013

  Actual Average Record
Temperature  
Mean Temperature 26 °F 28 °F  
Max Temperature 34 °F 36 °F 50 °F (2015)
Min Temperature 18 °F 19 °F 0 °F (2002)
Degree Days  
Heating Degree Days 39 37  
Month to date heating degree days 342 356  
Since 1 July heating degree days 2042 1999  
Cooling Degree Days 0 0  
Month to date cooling degree days 0  
Year to date cooling degree days 345  
Moisture  
Dew Point 18 °F    
Average Humidity 74    
Maximum Humidity 100    
Minimum Humidity 47    
Precipitation  
Precipitation T in 0.11 in 0.88 in (2008)
Month to date precipitation 0.06 1.14  
Year to date precipitation 35.47 41.72  
Sea Level Pressure  
Sea Level Pressure 29.86 in    
Wind  
Wind Speed 6 mph (West)    
Max Wind Speed 21 mph    
Max Gust Speed 26 mph    
Visibility 8 miles    
Events Snow    
T = Trace of Precipitation, MM = Missing Value Source: NWS Daily Summary

Daily Weather History Graph

Daily Weather History Graph

Search for Another Location

Airport or City:

Trip Planner

Search our weather history database for the weather conditions in past years. The results will help you decide how hot, cold, wet, or windy it might be!

Date:

Astronomy

Dec. 10, 2013 Rise Set
Actual Time 7:11 AM EST 4:14 PM EST
Civil Twilight 6:39 AM EST 4:46 PM EST
Nautical Twilight 6:03 AM EST 5:22 PM EST
Astronomical Twilight 5:28 AM EST 5:57 PM EST
Moon 12:23 PM EST (12/10) 12:17 AM EST (12/10)
Length of Visible Light 10h 07m
Length of Day
9h 02m
First Quarter, 61% of the Moon is Illuminated
Dec 10
First Quarter
Dec 17
Full
Dec 25
Last Quarter
Jan 1
New
Jan 7
First Quarter

Hourly Weather History & Observations

Time (EST) Temp. Windchill Dew Point Humidity Pressure Visibility Wind Dir Wind Speed Gust Speed Precip Events Conditions
12:54 AM 28.9 °F - 28.0 °F 96% 29.90 in 7.0 mi Calm Calm - N/A   Overcast
1:54 AM 28.9 °F 23.9 °F 27.0 °F 92% 29.88 in 10.0 mi Variable 4.6 mph - N/A   Overcast
2:54 AM 28.9 °F 25.2 °F 27.0 °F 92% 29.89 in 9.0 mi NW 3.5 mph - N/A   Mostly Cloudy
3:54 AM 28.9 °F - 27.0 °F 92% 29.87 in 10.0 mi Calm Calm - N/A   Scattered Clouds
4:54 AM 30.0 °F - 26.1 °F 85% 29.89 in 10.0 mi Calm Calm - N/A   Clear
5:54 AM 30.9 °F 26.2 °F 25.0 °F 79% 29.91 in 10.0 mi Variable 4.6 mph - N/A   Overcast
6:54 AM 32.0 °F - 24.1 °F 73% 29.89 in 10.0 mi Calm Calm - N/A   Overcast
7:54 AM 34.0 °F - 21.0 °F 59% 29.89 in 10.0 mi Calm Calm - N/A   Overcast
8:54 AM 32.0 °F 28.7 °F 21.0 °F 64% 29.90 in 10.0 mi West 3.5 mph - N/A   Overcast
9:54 AM 33.1 °F 26.9 °F 17.1 °F 52% 29.88 in 10.0 mi West 6.9 mph 18.4 mph N/A   Overcast
10:54 AM 33.1 °F 24.9 °F 17.1 °F 52% 29.86 in 10.0 mi WSW 10.4 mph - N/A   Overcast
11:54 AM 30.9 °F 26.2 °F 19.0 °F 61% 29.81 in 10.0 mi WSW 4.6 mph - N/A   Overcast
12:54 PM 30.0 °F 21.7 °F 12.0 °F 47% 29.81 in 10.0 mi West 9.2 mph - N/A   Overcast
1:24 PM 27.0 °F 16.7 °F 19.0 °F 72% 29.80 in 1.8 mi West 11.5 mph 20.7 mph 0.00 in Snow Light Snow
1:34 PM 27.0 °F 18.7 °F 19.9 °F 75% 29.80 in 1.2 mi SW 8.1 mph - 0.00 in Snow Light Snow
1:49 PM 26.6 °F 20.0 °F 21.2 °F 80% 29.79 in 3.0 mi SSW 5.8 mph - 0.00 in Snow Light Snow
1:54 PM 27.0 °F 23.0 °F 21.0 °F 78% 29.81 in 7.0 mi Variable 3.5 mph - 0.00 in   Overcast
2:54 PM 28.0 °F 22.8 °F 21.0 °F 75% 29.81 in 10.0 mi SSE 4.6 mph - N/A   Mostly Cloudy
3:54 PM 28.9 °F 19.2 °F 15.1 °F 56% 29.81 in 10.0 mi West 11.5 mph - N/A   Overcast
4:31 PM 28.0 °F 18.6 °F 18.0 °F 66% 29.80 in 2.5 mi West 10.4 mph - 0.00 in Snow Light Snow
4:49 PM 26.6 °F 21.2 °F 19.4 °F 74% 29.80 in 6.0 mi West 4.6 mph - 0.00 in Snow Light Snow
4:54 PM 26.1 °F 19.4 °F 19.9 °F 78% 29.83 in 9.0 mi WNW 5.8 mph - 0.00 in   Overcast
5:04 PM 27.0 °F 16.7 °F 17.1 °F 66% 29.82 in 10.0 mi WNW 11.5 mph 21.9 mph N/A   Overcast
5:54 PM 27.0 °F 19.5 °F 15.1 °F 61% 29.86 in 10.0 mi West 6.9 mph - N/A   Overcast
6:54 PM 25.0 °F 11.3 °F 15.1 °F 66% 29.88 in 3.0 mi West 18.4 mph 25.3 mph 0.00 in Snow Light Snow
7:28 PM 23.0 °F 18.4 °F 12.9 °F 65% 29.85 in 10.0 mi West 3.5 mph - 0.00 in   Scattered Clouds
7:54 PM 24.1 °F 13.1 °F 9.0 °F 53% 29.89 in 10.0 mi West 11.5 mph 17.3 mph 0.00 in   Scattered Clouds
8:54 PM 24.1 °F 11.5 °F 8.1 °F 51% 29.91 in 10.0 mi West 15.0 mph 21.9 mph N/A   Overcast
9:54 PM 21.9 °F 12.5 °F 6.1 °F 51% 29.94 in 10.0 mi West 8.1 mph - N/A   Clear
10:54 PM 19.9 °F 13.4 °F 6.1 °F 55% 29.95 in 10.0 mi WSW 4.6 mph - N/A   Clear
11:54 PM 19.0 °F 13.9 °F 8.1 °F 62% 29.98 in 10.0 mi West 3.5 mph - N/A   Clear